EB5EEV-10 Weather Reports


time (UTC)temp
C
wind
direction
speed
KPH
gust
KPH
rain 1hr
cm
rain 24hr
cm
rain mn
cm
humidity
%
barometer
mb
20260502162615 20 332 8.0 11.3 0.00 0.00 0.03 7 1013.9
20260502160843 20 329 14.5 19.3 0.00 0.00 0.03 7 1013.8
20260502151553 21 326 4.8 4.8 0.00 0.00 0.03 7 1014.4
20260502122044 20 357 3.2 6.4 0.00 0.00 0.03 8 1016.3
20260502120159 20 310 4.8 6.4 0.00 0.00 0.03 8 1016.5
20260502114322 20 293 1.6 1.6 0.00 0.00 0.03 8 1016.9
20260502110922 20 0 0.0 1.6 0.00 0.00 0.03 8 1017.0
20260502104640 19 232 1.6 4.8 0.00 0.00 0.03 8 1017.1
20260502102809 18 127 4.8 4.8 0.00 0.00 0.03 8 1017.3
20260502100929 18 0 0.0 0.0 0.00 0.00 0.03 8 1017.5
20260502091342 17 130 1.6 4.8 0.00 0.00 0.00 8 1017.7
20260502070720 18 0 0.0 0.0 0.00 0.00 0.00 8 1017.5
20260502064806 17 0 0.0 0.0 0.00 0.00 0.00 8 1017.4
20260502062950 17 135 1.6 1.6 0.00 0.00 0.00 8 1017.6
20260502061042 17 0 0.0 0.0 0.00 0.00 0.00 8 1017.5
20260502055228 17 0 0.0 1.6 0.00 0.00 0.00 8 1017.4
20260502053524 17 0 0.0 0.0 0.00 0.00 0.00 8 1017.4
20260502051714 17 0 0.0 1.6 0.00 0.00 0.00 8 1017.1
20260502045924 17 0 0.0 0.0 0.00 0.00 0.00 8 1017.2
20260502044141 17 0 0.0 0.0 0.00 0.00 0.00 8 1017.4
20260502042422 17 0 0.0 0.0 0.00 0.00 0.00 8 1017.4
20260502040642 17 0 0.0 0.0 0.00 0.00 0.00 8 1017.4
20260502034846 17 0 0.0 0.0 0.00 0.00 0.00 8 1017.6
20260502033113 17 0 0.0 1.6 0.00 0.00 0.00 8 1017.6
20260502031121 17 0 0.0 0.0 0.00 0.00 0.00 8 1017.5
20260502025431 17 0 0.0 0.0 0.00 0.00 0.00 8 1017.6
20260502023551 17 0 0.0 0.0 0.00 0.00 0.00 8 1017.6
20260502021728 17 0 0.0 0.0 0.00 0.00 0.00 8 1017.6
20260502020122 17 0 0.0 1.6 0.00 0.00 0.00 8 1017.8
20260502014303 17 0 0.0 0.0 0.00 0.00 0.00 8 1017.9
20260502012644 16 0 0.0 0.0 0.00 0.00 0.00 8 1018.0
20260502010943 16 0 0.0 1.6 0.00 0.00 0.00 8 1018.2
20260502005058 17 0 0.0 1.6 0.00 0.00 0.00 8 1018.2
20260502003312 17 0 0.0 1.6 0.00 0.00 0.00 8 1018.2
20260502001609 17 0 0.0 1.6 0.00 0.00 0.00 8 1018.5
20260501235857 17 0 0.0 0.0 0.00 0.00 0.00 8 1018.8
20260501234031 17 0 0.0 0.0 0.00 0.00 0.00 8 1019.0
20260501232332 17 0 0.0 0.0 0.00 0.00 0.00 8 1019.1
20260501230422 17 153 1.6 1.6 0.00 0.00 0.00 8 1019.2
20260501224727 17 0 0.0 0.0 0.00 0.00 0.00 8 1019.0
20260501223003 17 0 0.0 0.0 0.00 0.00 0.00 8 1019.2
20260501221133 18 0 0.0 0.0 0.00 0.00 0.00 8 1019.3
20260501215212 18 0 0.0 0.0 0.00 0.00 0.08 8 1019.4
20260501213454 18 0 0.0 1.6 0.00 0.00 0.08 8 1019.4
20260501211701 18 143 1.6 1.6 0.00 0.00 0.08 8 1019.6
20260501205847 18 127 1.6 3.2 0.00 0.00 0.08 8 1019.6
20260501203952 18 0 0.0 3.2 0.00 0.00 0.08 8 1019.4
20260501202141 18 0 0.0 0.0 0.00 0.00 0.08 8 1019.2
20260501200353 18 0 0.0 1.6 0.00 0.00 0.08 8 1019.1
20260501194454 18 0 0.0 1.6 0.00 0.00 0.08 8 1018.7
20260501192720 18 144 4.8 6.4 0.00 0.00 0.08 8 1018.4
20260501190834 18 220 1.6 1.6 0.00 0.00 0.08 8 1018.2
20260501185044 18 229 1.6 4.8 0.00 0.00 0.08 8 1018.2
20260501183207 18 234 1.6 4.8 0.00 0.00 0.08 8 1018.2
20260501181307 18 0 0.0 4.8 0.00 0.00 0.08 8 1017.9